Regional Weather Roundup
Issued by NWS Columbia, SC

Home | Current Version | Previous Version | Text Only | Print | Product List | Glossary On
Versions: 1 2 3 4 5 6 7 8 9 10 11 12 13 14 15 16 17 18 19 20 21 22 23 24 25 26 27 28 29 30 31 32 33 34 35 36 37 38 39 40 41 42 43 44 45 46 47 48 49 50
000
ASUS42 KCAE 311510
RWRCAE
REGIONAL WEATHER ROUNDUP
NATIONAL WEATHER SERVICE COLUMBIA SC
1100 AM EDT FRI JUL 31 2015

NOTE: "FAIR" INDICATES FEW OR NO CLOUDS BELOW 12,000 FEET WITH NO
SIGNIFICANT WEATHER AND/OR OBSTRUCTIONS TO VISIBILITY.

NOT ALL STATIONS ARE QUALITY CONTROLLED BY THE NATIONAL
WEATHER SERVICE. USE DATA WITH CAUTION...ESPECIALLY
DEWPOINT OBSERVATIONS.

SCZ001>056-GAZ040-063>065-077-311600-
...UPSTATE SOUTH CAROLINA...

CITY           SKY/WX    TMP DP  RH WIND       PRES   REMARKS
ANDERSON       MOSUNNY   85  65  51 NE13      30.01S
SPARTANBURG      N/A     82  63  51 NE9       30.02S
CLEMSON        SUNNY     86  64  47 NE9       30.02F
GREENVILLE     MOSUNNY   83  62  49 N14       30.03F
GREENWOOD      SUNNY     85  61  44 NE9       30.01S
GREER          MOSUNNY   82  63  52 NE13      30.02S
ROCK HILL      SUNNY     83  59  44 NE10      30.02S
CHESTER        SUNNY     86  59  39 NE12      30.02R
LAURENS        SUNNY     84  68  58 NE7       30.01S


...CENTRAL SOUTH CAROLINA...

CITY           SKY/WX    TMP DP  RH WIND       PRES   REMARKS
COLUMBIA APT   PTSUNNY   85  64  49 NE9G18    29.97R
COLUMBIA OWENS MOSUNNY   84  62  47 E8G17     29.98R
DARLINGTON     MOSUNNY   88  63  42 NE15      29.98R
FLORENCE       MOSUNNY   89  65  44 NE14      29.95R
MCENTIRE ANGB  PTSUNNY   85  63  47 NE9G21    29.98R
ORANGEBURG     MOSUNNY   87  66  49 E9        29.96R
SUMTER SHAW    PTSUNNY   80  67  64 N12       29.95R
NEWBERRY       MOSUNNY   82  63  51 NE10      30.03R
AIKEN          FAIR      81  61  50 NE10      30.02R
BARNWELL       FAIR      88  70  55 NE13      29.97R
MANNING        FAIR      82  64  54 N6        29.95S
CAMDEN         FAIR      84  64  51 NE9       29.98S
LANCASTER      SUNNY     82  63  51 NE8       30.01R
WINNSBORO      MOSUNNY   82  61  47 NE14G20   30.00R


...EASTERN AND COASTAL SOUTH CAROLINA...

CITY           SKY/WX    TMP DP  RH WIND       PRES   REMARKS
N MYRTLE BCH   PTSUNNY   84  75  74 NW5       29.93R
CONWAY         FAIR      82  72  69 CALM      29.94R
MARION         FAIR      84  68  58 N7        29.95R
HARTSVILLE     PTSUNNY   86  61  42 NE8       29.97S
FLORENCE       MOSUNNY   89  65  44 NE14      29.95R
DARLINGTON     MOSUNNY   88  63  42 NE15      29.98R
CHARLESTON APT CLOUDY    85  75  72 VRB5      29.95R
MOUNT PLEASANT   N/A     84  77  79 S7        29.95R
WALTERBORO     PTSUNNY   86  73  66 NE9       29.97R
BEAUFORT       CLOUDY    85  79  82 S5        29.96R HX  98


...EASTERN GEORGIA...

CITY           SKY/WX    TMP DP  RH WIND       PRES   REMARKS
AUGUSTA BUSH F PTSUNNY   85  69  58 E6        29.96R
AUGUSTA DANIEL SUNNY     87  65  47 NE12      29.98R
THOMSON        SUNNY     88  71  56 E9G20     30.02R
WASHINGTON     FAIR      88  68  51 E7        29.99S
CLAXTON        FAIR      84  77  79 NW3       29.95S
SYLVANIA       MOSUNNY   87  79  76 NE5       29.96R HX 102
STATESBORO     PTSUNNY   84  84 100 CALM      29.95R HX 104
SAVANNAH       PTSUNNY   82  75  79 W3        29.96R


...SOUTHERN NORTH CAROLINA...

CITY           SKY/WX    TMP DP  RH WIND       PRES   REMARKS
CHARLOTTE      MOSUNNY   84  58  40 NE12      30.03R
MONROE         SUNNY     84  60  44 NE16      30.01S
WADESBORO      SUNNY     86  56  35 N10G17    29.98S
ROCKINGHAM     MOSUNNY   84  62  46 N7        29.98R
RUTHERFORDTON  MOSUNNY   81  60  49 NE6       30.06S
ASHEVILLE      SUNNY     75  56  51 N14G21    30.11S

$$



USA.gov is the U.S. government's official web portal to all federal, state and local government web resources and services.